Torna al catalogo

CZ-6A DEB

AttivoPO
NORAD 60707·DEBRIS·🇨🇳 China

Lanciato Aug 6, 2024 da Taiyuan Satellite Launch Center

Loading…

Prossimi Passaggi (prossime 24 ore)

TLE

AggiornatoSource: Space-Track

Epoca: Sep 14, 2026, 09:41 UTC

1 60707U 24140DL  26257.40405801  .00000495  00000-0  16203-3 0  9998
2 60707  88.9626 259.1635 0039688  51.2649 309.2087 14.36564188109514

Traccia CZ-6A DEB in tempo reale con AllMySat

Download on the App Store